User: anonymous   Login
Location: Castelbiague
(43.0361°N, 0.9246°E)
Time: 10:12:53
(UTC+00:00)
Language:

Cosmos 1452 Rocket - Orbit

View from above orbital plane
View from above orbital plane
View from above satellite
View from above satellite

Ground track
Ground track

The orbit data is extracted from the following two-line orbital elements,

1 13992U 83031B   21267.82109819  .00000059  00000-0  29185-4 0  9998
2 13992  74.0550  24.3990 0005640 328.7442  31.3375 14.36241287 12844
Epoch (UTC): 24 September 2021 19:42:22
Eccentricity: 0.0005640
inclination: 74.0550°
perigee height: 767 km
apogee height: 775 km
right ascension of ascending node: 24.3990°
argument of perigee: 328.7442°
revolutions per day: 14.36241287
mean anomaly at epoch: 31.3375°
orbit number at epoch: 1284

The dashed part of the orbit path shows where the satellite is in the earth's shadow,  

DLR